Location: Barrio Las Umbrías
(40.4173°N, 4.8685°W)
Time: 12:30:32
(UTC+00:00)

Cosmos 2278 Rocket - Pass Details

Date: 17 August 2022
Orbit: 842 x 845 km, 71.0° (Epoch: 28 September)

Event Time Altitude Azimuth Distance (km) Brightness Sun altitude
Exits shadow 23:36:45 22° 288° (WNW) 1,767 4.1 -35.3°
Maximum altitude 23:37:56 23° 306° (NW) 1,704 4.1 -35.4°
Drops below altitude 10° 23:42:24 10° 359° (N) 2,467 5.4 -35.6°
Sets 23:45:22 0° 13° (NNE) 3,406 6.2 -35.7°
